Temp
-18 -19 -19 -19 -18 -18 -18 -17 -16 -16 -16 -14 -15 -12 -12 -12 -12 -12 -12 -12 -12 -11 -12 -11 -11 -11 -11 -11 -11 -11 -11 -12 -11 -11 -10 -10 -10 -10 -10 -10 -10 -9 -9 -9
-20 -21 -21 -21 -21 -20 -20 -19 -18 -17 -17 -16 -15 -13 -13 -13 -13 -13 -12 -12 -12 -12 -12 -12 -12 -12 -11 -12 -11 -11 -11 -12 -12 -11 -11 -11 -10 -10 -10 -10 -10 -10 -10 -9
-21 -22 -22 -22 -21 -21 -21 -21 -20 -19 -18 -18 -17 -14 -13 -14 -13 -14 -12 -12 -13 -13 -13 -13 -12 -12 -12 -11 -12 -11 -12 -12 -12 -12 -11 -11 -10 -10 -10 -10 -10 -10 -10 -10
-22 -22 -22 -22 -21 -21 -21 -21 -21 -20 -20 -19 -19 -16 -14 -14 -14 -14 -13 -13 -13 -13 -13 -13 -13 -12 -12 -12 -12 -12 -12 -12 -12 -12 -12 -11 -11 -11 -11 -10 -10 -10 -10 -10
-22 -22 -22 -22 -21 -21 -21 -21 -21 -20 -20 -20 -19 -19 -14 -15 -14 -14 -15 -14 -14 -13 -14 -14 -13 -13 -13 -13 -13 -12 -12 -12 -12 -12 -12 -12 -11 -11 -11 -10 -10 -10 -10 -10
-22 -22 -22 -22 -22 -22 -21 -21 -21 -20 -20 -20 -19 -19 -16 -16 -15 -15 -15 -15 -15 -14 -14 -14 -14 -14 -13 -13 -13 -13 -12 -12 -12 -12 -12 -12 -12 -11 -11 -11 -10 -10 -10 -10
-22 -22 -22 -22 -22 -22 -22 -22 -21 -20 -20 -20 -19 -19 -18 -17 -17 -16 -15 -15 -15 -15 -14 -15 -14 -14 -14 -14 -14 -14 -13 -12 -12 -12 -12 -12 -12 -12 -11 -11 -11 -10 -10 -10
-22 -22 -22 -23 -22 -22 -22 -22 -22 -22 -22 -21 -20 -19 -18 -18 -17 -17 -16 -16 -15 -16 -15 -14 -15 -15 -14 -14 -13 -14 -13 -13 -12 -12 -12 -12 -12 -12 -12 -11 -11 -11 -10 -10
-22 -22 -24 -23 -24 -23 -23 -24 -27 -27 -27 -27 -23 -23 -21 -20 -19 -19 -18 -17 -16 -16 -16 -15 -15 -15 -15 -14 -14 -13 -13 -13 -13 -12 -12 -12 -12 -12 -12 -12 -11 -11 -11 -10
-23 -23 -23 -25 -25 -25 -26 -27 -30 -31 -30 -30 -29 -29 -27 -26 -26 -24 -21 -19 -17 -17 -16 -16 -15 -15 -15 -14 -14 -14 -14 -13 -12 -13 -12 -12 -12 -12 -12 -12 -11 -11 -11 -11
-24 -24 -24 -25 -26 -27 -29 -31 -32 -31 -31 -31 -31 -30 -28 -28 -28 -27 -25 -24 -21 -18 -17 -16 -15 -15 -15 -14 -14 -14 -14 -14 -13 -12 -12 -12 -12 -12 -12 -12 -11 -12 -12 -11
-25 -24 -24 -25 -27 -28 -30 -31 -31 -31 -31 -31 -30 -27 -29 -29 -28 -27 -25 -24 -24 -20 -17 -17 -17 -15 -15 -15 -14 -13 -13 -14 -14 -13 -12 -12 -12 -12 -12 -12 -11 -12 -12 -11
-25 -25 -25 -25 -27 -29 -29 -31 -32 -32 -32 -31 -30 -30 -30 -29 -28 -28 -24 -23 -24 -22 -19 -18 -17 -16 -15 -15 -14 -14 -14 -13 -14 -14 -13 -12 -13 -12 -12 -12 -12 -12 -12 -12
-26 -26 -27 -26 -27 -28 -30 -31 -32 -32 -32 -30 -30 -30 -29 -28 -28 -27 -27 -24 -23 -23 -22 -19 -19 -17 -15 -14 -14 -14 -14 -14 -14 -14 -13 -13 -12 -12 -12 -12 -12 -12 -12 -12
-28 -27 -28 -27 -29 -30 -30 -31 -31 -32 -32 -31 -30 -30 -29 -28 -27 -27 -26 -24 -24 -23 -22 -20 -19 -18 -16 -14 -15 -14 -14 -14 -14 -14 -13 -13 -13 -12 -12 -12 -12 -12 -12 -12
-28 -28 -29 -27 -29 -31 -30 -31 -32 -32 -31 -31 -31 -30 -29 -28 -27 -27 -25 -25 -24 -23 -23 -21 -19 -18 -17 -15 -14 -14 -14 -14 -14 -14 -14 -13 -13 -13 -12 -12 -12 -12 -12 -12
-29 -29 -29 -27 -30 -30 -29 -33 -33 -32 -32 -32 -30 -30 -28 -27 -27 -26 -24 -25 -24 -23 -22 -21 -19 -18 -18 -16 -15 -14 -14 -14 -14 -14 -14 -14 -13 -13 -12 -12 -12 -12 -12 -12
-30 -31 -31 -29 -30 -29 -31 -32 -33 -33 -32 -32 -31 -30 -30 -29 -27 -27 -26 -25 -24 -23 -23 -22 -21 -19 -18 -17 -16 -15 -14 -15 -14 -14 -14 -14 -14 -13 -13 -13 -12 -12 -12 -12
-31 -32 -32 -31 -31 -30 -30 -33 -34 -33 -32 -33 -31 -30 -30 -30 -28 -26 -25 -25 -25 -23 -23 -22 -22 -20 -19 -18 -17 -16 -15 -14 -14 -14 -14 -14 -14 -13 -13 -13 -12 -12 -12 -12
-31 -32 -33 -33 -32 -31 -31 -33 -35 -34 -31 -32 -32 -30 -30 -30 -28 -27 -25 -25 -25 -24 -23 -22 -21 -21 -19 -18 -17 -17 -16 -16 -14 -14 -14 -14 -14 -14 -13 -13 -13 -13 -13 -13
-31 -31 -32 -33 -33 -33 -32 -34 -35 -33 -33 -33 -32 -31 -30 -29 -28 -27 -25 -25 -24 -24 -23 -22 -22 -22 -21 -19 -17 -17 -17 -16 -16 -14 -15 -15 -15 -14 -14 -13 -13 -13 -13 -13
-32 -32 -33 -35 -35 -33 -34 -35 -35 -34 -33 -33 -32 -31 -30 -29 -30 -28 -26 -25 -25 -24 -24 -23 -22 -22 -21 -20 -18 -17 -17 -16 -16 -15 -15 -15 -15 -15 -14 -14 -13 -13 -13 -13
-32 -34 -36 -36 -35 -35 -35 -35 -35 -35 -34 -33 -32 -31 -30 -30 -30 -30 -27 -25 -25 -24 -24 -24 -22 -21 -21 -20 -19 -18 -17 -17 -16 -16 -16 -16 -15 -15 -14 -14 -14 -13 -13 -13
-31 -34 -36 -36 -35 -35 -35 -36 -35 -35 -35 -34 -33 -32 -30 -30 -30 -29 -29 -26 -25 -25 -24 -25 -23 -22 -21 -20 -19 -19 -18 -17 -16 -16 -17 -17 -16 -16 -15 -14 -14 -14 -14 -14
-34 -36 -36 -36 -35 -35 -36 -36 -36 -35 -35 -34 -34 -33 -31 -30 -30 -29 -29 -27 -25 -25 -25 -24 -23 -22 -22 -21 -20 -19 -19 -17 -16 -16 -17 -17 -16 -16 -15 -15 -15 -15 -15 -15
-37 -36 -37 -34 -36 -37 -35 -36 -36 -35 -35 -35 -34 -34 -32 -30 -30 -30 -29 -29 -26 -25 -25 -25 -23 -22 -22 -22 -21 -20 -19 -19 -18 -17 -17 -17 -17 -16 -16 -16 -16 -15 -15 -15
Height
5634 5634 5635 5636 5635 5633 5634 5635 5637 5638 5636 5640 5644 5656 5666 5670 5677 5683 5688 5694 5697 5699 5705 5709 5714 5716 5719 5723 5730 5735 5743 5748 5752 5758 5764 5770 5776 5779 5784 5788 5792 5795 5797 5798
5626 5624 5624 5625 5623 5622 5621 5621 5622 5623 5624 5623 5624 5639 5653 5653 5663 5669 5675 5682 5688 5689 5693 5698 5702 5707 5710 5714 5721 5726 5734 5740 5744 5750 5756 5760 5765 5772 5778 5784 5788 5791 5793 5794
5616 5615 5616 5616 5614 5613 5611 5610 5610 5610 5610 5609 5606 5618 5631 5635 5646 5654 5663 5670 5672 5676 5680 5684 5689 5694 5699 5705 5710 5716 5723 5731 5735 5741 5746 5752 5756 5766 5775 5781 5782 5785 5788 5790
5609 5608 5608 5608 5605 5603 5603 5601 5599 5600 5596 5593 5593 5588 5613 5620 5632 5642 5646 5648 5656 5661 5665 5670 5674 5681 5688 5693 5697 5703 5711 5719 5725 5732 5738 5744 5751 5759 5766 5768 5773 5780 5783 5786
5601 5599 5599 5597 5594 5591 5589 5588 5588 5587 5584 5577 5576 5572 5596 5606 5613 5624 5624 5627 5634 5642 5648 5655 5660 5665 5673 5678 5685 5692 5697 5707 5714 5723 5729 5735 5742 5749 5755 5761 5769 5774 5778 5781
5593 5589 5588 5587 5584 5579 5574 5573 5572 5570 5567 5560 5560 5560 5573 5590 5589 5594 5602 5609 5615 5622 5630 5638 5645 5650 5657 5665 5672 5678 5686 5695 5703 5712 5719 5726 5733 5741 5746 5754 5763 5768 5771 5775
5587 5579 5577 5574 5573 5568 5560 5556 5552 5550 5545 5540 5548 5540 5553 5570 5567 5566 5579 5592 5598 5603 5611 5620 5628 5634 5641 5650 5659 5666 5673 5683 5692 5700 5709 5717 5724 5731 5737 5745 5753 5759 5763 5769
5578 5573 5566 5562 5559 5555 5545 5541 5534 5526 5522 5519 5526 5519 5533 5535 5544 5544 5555 5562 5569 5578 5588 5599 5609 5616 5624 5631 5641 5651 5661 5670 5680 5691 5698 5706 5714 5721 5727 5735 5744 5750 5755 5760
5568 5567 5556 5549 5544 5541 5534 5527 5520 5511 5509 5501 5505 5502 5505 5511 5516 5522 5520 5521 5534 5546 5558 5570 5583 5595 5606 5617 5628 5637 5645 5654 5665 5678 5687 5695 5704 5711 5718 5726 5735 5741 5746 5752
5558 5556 5550 5541 5535 5528 5521 5517 5513 5509 5501 5494 5493 5490 5489 5501 5497 5498 5502 5511 5519 5531 5545 5558 5569 5581 5589 5600 5610 5623 5635 5644 5653 5662 5674 5685 5693 5702 5708 5716 5725 5732 5738 5744
5547 5546 5543 5534 5526 5521 5514 5509 5506 5502 5501 5493 5484 5486 5496 5489 5480 5480 5485 5488 5495 5506 5523 5537 5550 5564 5577 5586 5598 5612 5622 5632 5641 5651 5662 5673 5683 5691 5698 5707 5715 5722 5728 5735
5539 5535 5531 5526 5518 5513 5508 5505 5500 5494 5496 5495 5485 5478 5484 5478 5474 5475 5478 5482 5483 5488 5501 5517 5531 5544 5560 5573 5586 5599 5610 5620 5630 5640 5648 5661 5670 5679 5688 5697 5705 5712 5719 5726
5529 5525 5519 5518 5514 5507 5501 5500 5495 5489 5486 5490 5479 5470 5472 5471 5469 5470 5469 5472 5476 5479 5492 5504 5517 5529 5545 5560 5573 5585 5599 5612 5619 5627 5637 5647 5659 5669 5679 5687 5695 5702 5709 5717
5517 5514 5510 5502 5499 5494 5493 5492 5489 5482 5481 5478 5476 5462 5465 5464 5462 5463 5459 5461 5468 5473 5480 5491 5503 5517 5531 5546 5560 5572 5585 5596 5607 5617 5627 5637 5648 5659 5667 5676 5684 5692 5700 5707
5507 5504 5501 5496 5489 5484 5479 5480 5480 5475 5474 5470 5466 5464 5459 5457 5456 5456 5454 5455 5462 5468 5473 5480 5494 5508 5519 5533 5547 5559 5572 5584 5594 5603 5614 5626 5636 5645 5654 5664 5674 5682 5690 5698
5498 5494 5489 5487 5481 5474 5470 5472 5469 5465 5465 5462 5459 5460 5454 5451 5451 5450 5451 5451 5457 5461 5466 5472 5481 5496 5507 5520 5534 5546 5559 5573 5582 5591 5601 5612 5622 5632 5644 5654 5663 5672 5680 5688
5488 5483 5478 5477 5472 5466 5467 5463 5458 5456 5457 5452 5452 5452 5448 5445 5443 5444 5447 5447 5448 5455 5459 5465 5472 5484 5496 5508 5520 5533 5547 5559 5570 5579 5589 5600 5610 5621 5633 5642 5652 5662 5671 5679
5477 5471 5465 5463 5460 5454 5458 5455 5451 5448 5447 5445 5446 5445 5443 5439 5437 5436 5437 5440 5446 5447 5453 5459 5465 5473 5486 5498 5509 5520 5533 5546 5559 5570 5580 5590 5598 5609 5619 5630 5641 5650 5660 5669
5464 5458 5452 5448 5447 5443 5445 5446 5442 5438 5438 5439 5438 5439 5438 5437 5433 5432 5433 5435 5441 5444 5448 5452 5457 5463 5474 5488 5500 5511 5522 5534 5548 5561 5571 5580 5589 5596 5606 5619 5629 5639 5649 5658
5458 5451 5443 5437 5431 5424 5435 5435 5434 5427 5426 5433 5432 5432 5431 5431 5429 5428 5427 5430 5437 5439 5440 5445 5452 5458 5466 5478 5490 5502 5512 5523 5536 5549 5560 5568 5577 5586 5595 5607 5618 5628 5638 5648
5449 5440 5429 5424 5416 5413 5422 5426 5422 5422 5426 5423 5423 5423 5425 5426 5423 5422 5422 5426 5431 5436 5440 5444 5447 5453 5460 5468 5480 5492 5503 5514 5524 5535 5547 5557 5568 5577 5585 5595 5606 5617 5627 5637
5432 5423 5415 5410 5405 5400 5414 5413 5414 5414 5412 5413 5414 5415 5417 5420 5418 5415 5417 5423 5427 5430 5434 5438 5443 5448 5454 5461 5470 5482 5494 5505 5516 5524 5535 5547 5557 5566 5575 5585 5595 5606 5616 5626
5416 5410 5396 5393 5389 5394 5398 5401 5404 5404 5403 5405 5405 5407 5410 5411 5412 5412 5413 5418 5422 5426 5430 5433 5437 5442 5448 5454 5462 5471 5483 5495 5506 5516 5525 5536 5546 5555 5565 5575 5585 5595 5605 5615
5402 5396 5377 5371 5376 5378 5385 5390 5394 5394 5394 5395 5397 5398 5401 5404 5405 5407 5408 5411 5417 5421 5424 5428 5433 5438 5443 5448 5455 5463 5472 5484 5496 5506 5515 5526 5537 5546 5556 5566 5575 5584 5594 5604
5384 5371 5362 5353 5360 5364 5373 5382 5384 5384 5385 5386 5389 5391 5393 5396 5400 5402 5403 5404 5410 5415 5420 5425 5431 5432 5438 5444 5449 5456 5465 5474 5485 5496 5506 5516 5527 5537 5546 5555 5565 5575 5584 5594
5369 5358 5350 5350 5353 5354 5362 5369 5372 5374 5378 5380 5382 5384 5388 5390 5393 5397 5398 5400 5403 5409 5414 5421 5426 5429 5432 5438 5445 5450 5458 5466 5475 5486 5497 5506 5516 5527 5536 5545 5555 5563 5572 5581
Wind_Speed
45 47 49 51 55 57 61 63 64 62 66 69 65 67 65 63 57 55 54 51 51 50 46 43 42 43 43 47 49 48 46 44 41 39 42 41 40 40 37 33 29 23 19 15
36 39 42 44 47 51 54 58 60 63 65 69 71 68 64 66 61 59 57 54 53 53 50 48 45 45 45 45 49 51 49 47 44 41 41 44 45 43 40 34 28 24 21 17
34 35 37 39 44 47 50 53 56 60 63 64 71 73 69 68 65 60 60 56 56 57 53 51 52 48 47 47 47 53 51 49 47 44 44 47 48 44 38 33 30 27 23 19
32 35 38 40 44 47 48 49 51 53 58 64 65 77 72 72 67 63 63 62 60 59 57 54 55 54 49 48 50 52 54 51 51 48 46 45 45 43 39 40 38 29 24 20
33 36 38 41 44 47 49 51 52 54 57 63 66 74 70 69 69 65 65 66 64 63 61 59 57 58 56 52 52 52 56 55 54 51 48 47 46 45 45 45 39 33 26 22
30 35 39 41 43 47 50 51 53 55 58 63 66 70 74 67 71 71 69 68 67 67 65 61 62 61 61 57 55 54 56 59 56 54 52 49 46 44 46 44 39 35 30 26
30 35 39 42 40 42 47 49 53 56 58 63 62 70 70 67 73 78 74 70 71 70 69 65 63 66 64 61 57 56 55 59 59 57 55 51 48 47 47 46 42 39 35 30
30 36 38 42 43 45 51 51 50 52 54 59 58 69 66 68 70 77 77 76 74 72 72 71 67 67 67 67 63 60 55 56 61 58 57 54 52 49 50 47 44 42 39 36
33 34 38 41 44 48 48 46 40 43 45 49 53 54 59 58 64 72 77 83 81 76 71 73 72 70 70 68 67 62 60 58 61 60 58 56 53 52 51 49 46 45 42 39
34 36 36 39 42 45 44 41 32 30 37 36 35 38 43 26 27 45 62 73 80 78 74 72 72 72 72 72 68 65 60 58 61 62 60 58 55 53 53 52 49 47 45 41
36 37 37 38 42 37 33 31 28 31 30 34 42 39 26 23 27 29 31 34 64 78 76 73 73 72 72 73 70 66 61 60 60 65 62 60 58 56 55 53 51 50 47 44
35 38 37 39 37 35 29 27 30 32 30 30 39 32 33 30 36 24 32 30 35 60 74 71 73 72 74 73 71 66 63 62 60 64 65 62 61 59 57 54 52 51 49 46
38 39 41 39 32 30 34 28 30 34 32 25 34 46 42 36 31 34 35 28 31 46 61 68 70 72 75 73 72 68 64 59 61 63 67 64 61 60 58 56 52 51 50 48
40 40 41 45 44 43 28 29 30 33 27 27 29 40 36 35 26 29 38 31 30 36 44 62 66 68 72 76 72 69 66 61 61 61 65 64 62 61 60 58 55 53 51 50
41 41 40 42 44 42 39 25 28 32 27 31 29 31 35 29 23 22 31 35 22 35 45 51 68 62 64 74 74 71 67 64 62 63 63 63 62 63 62 60 57 56 53 51
40 42 43 44 41 40 44 29 31 35 30 33 31 27 27 31 28 22 18 22 20 21 45 50 57 68 59 65 74 74 69 68 63 65 62 64 64 64 63 61 59 57 55 53
46 45 46 45 41 44 40 20 27 36 37 39 26 24 23 25 26 14 15 22 17 20 43 54 59 70 62 61 68 76 70 67 65 66 63 63 64 65 64 62 60 58 56 54
46 45 50 51 47 52 36 25 25 31 37 38 33 24 14 23 23 25 21 22 22 18 38 45 52 58 70 69 64 69 74 72 66 65 63 62 65 65 66 63 61 59 58 56
48 49 51 53 53 55 40 20 25 32 37 36 36 24 14 18 20 18 21 15 17 9 15 41 50 57 63 71 67 64 66 70 71 63 61 61 64 66 67 65 63 60 58 57
45 48 50 54 53 54 33 16 24 31 39 32 32 28 15 12 24 19 17 14 20 12 17 28 48 52 57 71 69 64 64 61 70 68 65 63 63 66 67 67 65 62 59 56
48 53 56 51 51 50 33 20 28 33 29 30 33 31 25 9 14 20 19 18 28 25 15 28 39 48 51 59 72 68 63 60 58 66 68 63 62 64 67 67 66 64 62 59
54 58 57 49 46 46 29 28 28 27 31 34 35 32 24 11 7 14 18 23 31 24 12 16 35 39 45 49 60 68 65 59 56 55 66 66 63 64 66 67 67 65 63 61
59 54 53 51 47 38 32 25 28 26 31 31 37 32 27 15 9 14 23 25 34 26 14 13 25 30 39 46 51 55 68 65 60 54 57 65 64 62 64 65 66 66 64 62
64 55 57 52 45 39 27 25 27 25 33 33 34 35 31 23 11 18 18 26 26 28 24 9 22 31 36 42 51 52 52 62 65 57 54 61 63 62 62 62 63 63 62 61
62 51 43 39 31 33 26 23 22 29 32 33 32 35 35 30 20 14 21 25 30 28 28 19 25 27 27 29 44 50 49 55 66 62 54 61 61 58 57 59 59 58 57 57
36 32 34 28 21 28 26 24 23 31 30 32 31 32 36 35 28 19 14 24 29 30 30 31 24 27 26 20 30 45 49 48 58 62 57 58 60 59 58 56 55 56 57 57
Wind_Direction
277 273 270 267 266 265 263 261 259 258 258 254 252 249 249 250 246 245 246 246 246 249 245 244 244 239 237 234 223 222 221 223 221 225 222 219 221 221 224 226 233 239 245 246
275 270 269 269 269 269 270 267 264 260 258 258 256 248 248 250 247 245 243 243 245 246 244 242 242 243 239 236 230 223 221 222 222 220 222 220 221 221 224 227 231 238 242 244
269 267 267 270 273 275 277 277 275 272 266 265 261 250 245 245 247 243 246 241 240 243 241 240 239 238 239 238 232 226 222 221 222 219 220 222 221 222 225 229 234 234 236 241
263 265 269 274 277 275 273 273 274 274 274 273 270 260 245 245 244 247 243 242 238 239 240 237 238 238 236 235 234 225 223 220 222 220 219 221 222 220 220 225 229 231 234 237
267 274 280 285 285 284 282 280 277 274 271 269 268 268 248 247 246 242 243 242 238 235 237 236 236 235 235 233 233 229 222 219 221 219 219 218 219 218 221 225 228 230 234 235
278 284 288 289 290 290 289 287 284 279 275 271 269 267 259 254 251 245 239 241 241 236 235 234 233 233 234 232 231 229 226 219 218 219 219 218 216 218 221 223 226 230 232 231
280 290 295 294 295 302 306 304 295 285 277 272 269 266 265 258 254 252 243 238 238 240 235 232 232 232 232 230 231 229 226 221 218 217 218 218 216 214 219 220 219 223 228 228
288 298 300 304 306 312 315 311 301 291 284 276 269 266 260 254 248 251 248 244 238 236 235 232 228 230 229 228 225 226 223 224 218 218 217 217 216 214 217 218 217 220 225 228
297 302 314 316 323 321 321 309 303 294 284 282 273 268 259 256 250 243 244 242 238 235 230 229 225 223 228 228 228 224 220 218 218 217 218 217 217 215 217 217 216 218 222 225
304 307 315 325 327 326 319 308 296 290 295 296 290 288 288 285 266 249 245 241 238 237 233 228 227 222 224 225 224 225 223 219 217 215 216 216 217 216 217 217 215 218 220 223
309 312 319 327 328 326 302 285 276 275 288 292 295 297 324 273 273 225 221 229 241 233 231 228 226 222 222 225 225 222 220 219 219 216 213 215 216 216 218 218 216 218 220 222
311 312 316 324 328 325 296 269 265 277 278 280 286 292 308 300 279 253 202 207 224 237 228 224 224 220 219 222 224 224 220 217 215 218 213 213 213 215 217 217 217 219 220 222
311 314 316 319 323 317 301 259 264 280 288 296 289 291 292 298 281 278 199 192 210 235 232 222 222 220 216 218 221 222 220 218 216 215 216 212 212 214 217 217 216 218 221 222
310 312 317 317 320 319 311 258 258 280 284 281 288 296 296 297 288 283 276 214 193 227 229 219 216 220 217 214 217 220 218 215 216 216 216 215 212 213 216 217 217 217 219 221
307 308 312 313 313 310 308 291 238 269 276 279 278 299 302 301 284 314 274 234 217 204 218 221 212 212 215 214 214 217 217 213 215 214 212 213 213 214 214 217 218 218 218 220
306 309 306 310 311 303 303 307 256 261 265 270 279 297 302 294 287 298 291 260 236 212 218 218 213 208 205 209 212 215 216 214 213 215 209 210 212 214 215 215 218 219 219 219
307 307 306 307 309 306 320 299 272 254 262 272 275 295 273 264 277 278 231 252 234 240 210 217 211 208 202 207 208 213 214 213 212 214 210 208 211 213 215 214 216 219 220 221
311 311 307 309 309 307 314 290 281 263 258 267 267 276 340 307 278 277 236 250 222 232 219 220 215 208 206 209 209 208 212 212 208 209 210 209 209 212 214 214 215 217 220 220
318 314 309 307 307 308 319 310 300 259 243 261 261 268 287 309 252 218 218 246 235 226 207 213 221 212 207 205 204 207 207 211 210 209 211 211 210 210 214 214 214 216 218 220
309 308 302 304 304 303 311 302 296 268 245 260 264 255 274 301 232 223 167 224 224 244 209 198 219 217 212 205 203 204 202 203 209 211 212 211 210 210 212 214 215 216 216 217
306 303 304 302 299 295 304 294 284 265 264 261 259 257 261 261 230 212 178 206 230 238 214 220 223 221 218 209 206 204 203 203 204 209 209 210 210 211 212 213 215 216 216 216
309 304 302 297 289 287 290 278 282 271 260 258 254 249 249 246 251 240 205 215 229 219 235 235 205 217 218 210 211 210 208 204 205 207 207 208 210 211 213 213 215 216 217 217
307 304 301 286 275 272 272 266 274 272 266 253 251 250 241 238 250 247 207 212 224 224 240 268 209 192 211 212 209 209 210 207 206 207 206 209 210 210 213 214 215 217 218 219
313 311 296 285 272 265 258 250 259 268 260 264 255 257 242 232 243 248 231 200 215 225 225 215 239 195 205 207 208 207 209 211 206 209 211 209 211 212 213 215 216 217 218 219
322 309 300 280 273 254 239 242 252 261 258 259 262 255 250 237 237 227 239 208 212 228 235 225 220 223 185 197 201 201 206 208 206 208 210 207 208 210 211 213 216 216 217 217
323 306 287 280 264 260 204 221 244 252 256 254 261 263 251 246 246 237 223 225 207 218 228 232 207 205 222 188 211 203 203 202 203 205 208 208 208 210 212 212 213 215 214 214